Cleveland, TX

3:46 AM CDT on September 28, 2016 (GMT -0500)
Cleveland

Weather History for K6R3 - August, 2013

Change the Weather History Date:

Saturday, August 24, 2013

  Actual Average (KCXO) Record (KCXO)
Temperature  
Mean Temperature 86 °F -  
Max Temperature 99 °F 91 °F 100 °F (2011)
Min Temperature 72 °F 70 °F 66 °F (1997)
Cooling Degree Days 20    
Growing Degree Days 36 (Base 50)    
Moisture  
Dew Point 71 °F    
Average Humidity 68    
Maximum Humidity 97    
Minimum Humidity 34    
Precipitation  
Precipitation 0.00 in - - ()
Sea Level Pressure  
Sea Level Pressure 30.00 in    
Wind  
Wind Speed 1 mph (East)    
Max Wind Speed 8 mph    
Max Gust Speed 18 mph    
Visibility 7 miles    
Events      
Averages and records for this station are not official NWS values.
T = Trace of Precipitation, MM = Missing Value Source: NWS Daily Summary

Daily Weather History Graph

Daily Weather History Graph

Search for Another Location

Airport or City:

Trip Planner

Search our weather history database for the weather conditions in past years. The results will help you decide how hot, cold, wet, or windy it might be!

Date:

Astronomy

Aug. 24, 2013 Rise Set
Actual Time 6:52 AM CDT 7:51 PM CDT
Civil Twilight 6:27 AM CDT 8:16 PM CDT
Nautical Twilight 5:58 AM CDT 8:45 PM CDT
Astronomical Twilight 5:28 AM CDT 9:15 PM CDT
Moon 10:09 PM CDT (8/24) 10:31 AM CDT (8/24)
Length of Visible Light 13h 48m
Length of Day
12h 59m
Waning Gibbous, 84% of the Moon is Illuminated
Aug 24
Waning Gibbous
Aug 28
Last Quarter
Sep 5
New
Sep 12
First Quarter
Sep 19
Full

Hourly Weather History & Observations

Time (CDT) Temp. Heat Index Dew Point Humidity Pressure Visibility Wind Dir Wind Speed Gust Speed Precip Events Conditions
12:15 AM 76.3 °F - 73.6 °F 91% 29.98 in 7.0 mi Calm Calm - N/A   Clear
12:35 AM 77.0 °F - 74.1 °F 91% 29.97 in 7.0 mi Calm Calm - N/A   Clear
12:55 AM 76.1 °F - 73.6 °F 92% 29.98 in 7.0 mi Calm Calm - N/A   Clear
1:15 AM 75.6 °F - 73.0 °F 92% 29.97 in 7.0 mi Calm Calm - N/A   Clear
1:35 AM 74.5 °F - 72.5 °F 94% 29.98 in 7.0 mi Calm Calm - N/A   Clear
2:15 AM 74.3 °F - 72.5 °F 94% 29.97 in 5.0 mi Calm Calm - N/A   Clear
2:35 AM 73.6 °F - 72.0 °F 95% 29.98 in 5.0 mi Calm Calm - N/A   Clear
2:55 AM 74.5 °F - 72.9 °F 95% 29.98 in 5.0 mi Calm Calm - N/A   Clear
3:15 AM 74.7 °F - 73.2 °F 95% 29.98 in 5.0 mi Calm Calm - N/A   Clear
3:35 AM 73.9 °F - 72.5 °F 95% 29.98 in 4.0 mi Calm Calm - N/A   Clear
3:55 AM 74.7 °F - 73.4 °F 96% 29.98 in 5.0 mi Calm Calm - N/A   Clear
4:15 AM 74.5 °F - 73.0 °F 95% 29.98 in 5.0 mi Calm Calm - N/A   Clear
4:35 AM 73.4 °F - 71.6 °F 94% 29.99 in 3.0 mi Calm Calm - N/A   Clear
4:55 AM 73.9 °F - 72.9 °F 96% 29.99 in 4.0 mi Calm Calm - N/A   Clear
5:15 AM 73.6 °F - 72.3 °F 96% 29.99 in 4.0 mi Calm Calm - N/A   Clear
5:35 AM 73.9 °F - 72.9 °F 96% 29.99 in 4.0 mi Calm Calm - N/A   Clear
5:55 AM 73.6 °F - 72.5 °F 96% 30.00 in 4.0 mi Calm Calm - N/A   Scattered Clouds
6:15 AM 73.8 °F - 72.7 °F 96% 30.00 in 5.0 mi Calm Calm - N/A   Scattered Clouds
6:35 AM 73.6 °F - 72.5 °F 96% 30.00 in 3.0 mi Calm Calm - N/A   Clear
6:55 AM 72.7 °F - 71.8 °F 97% 30.01 in 2.5 mi Calm Calm - N/A   Clear
7:15 AM 73.4 °F - 72.3 °F 96% 30.02 in 1.5 mi Calm Calm - N/A   Mist
7:35 AM 73.8 °F - 72.9 °F 97% 30.02 in 3.0 mi Calm Calm - N/A   Mostly Cloudy
7:55 AM 75.9 °F - 74.8 °F 96% 30.03 in 4.0 mi Calm Calm - N/A   Mostly Cloudy
8:15 AM 78.1 °F - 75.6 °F 92% 30.03 in 5.0 mi Calm Calm - N/A   Scattered Clouds
8:35 AM 80.4 °F 86.0 °F 75.6 °F 85% 30.03 in 7.0 mi ENE 3.5 mph - N/A   Clear
8:55 AM 82.8 °F 91.0 °F 76.3 °F 81% 30.03 in 5.0 mi Calm Calm - N/A   Haze
9:15 AM 84.6 °F 93.9 °F 76.1 °F 76% 30.04 in 5.0 mi Calm Calm - N/A   Haze
9:35 AM 86.2 °F 96.4 °F 76.1 °F 72% 30.04 in 10.0 mi NE 3.5 mph - N/A   Clear
9:55 AM 87.4 °F 97.7 °F 75.6 °F 68% 30.04 in 7.0 mi NE 3.5 mph - N/A   Clear
10:15 AM 88.5 °F 98.8 °F 75.2 °F 65% 30.05 in 7.0 mi Calm Calm - N/A   Clear
10:35 AM 90.0 °F 100.7 °F 75.6 °F 62% 30.05 in 7.0 mi ENE 4.6 mph - N/A   Scattered Clouds
10:55 AM 88.3 °F 97.4 °F 74.1 °F 63% 30.05 in 7.0 mi NE 6.9 mph - N/A   Scattered Clouds
11:15 AM 90.1 °F 98.3 °F 72.9 °F 57% 30.05 in 7.0 mi East 4.6 mph - N/A   Scattered Clouds
11:35 AM 92.8 °F 102.2 °F 73.2 °F 53% 30.05 in 10.0 mi NE 3.5 mph - N/A   Scattered Clouds
11:55 AM 92.5 °F 99.0 °F 70.7 °F 49% 30.04 in 7.0 mi NE 8.1 mph - N/A   Scattered Clouds
12:15 PM 94.1 °F 98.9 °F 68.7 °F 43% 30.04 in 7.0 mi NNE 5.8 mph - N/A   Clear
12:35 PM 95.9 °F 101.3 °F 68.7 °F 41% 30.03 in 7.0 mi East 5.8 mph - N/A   Clear
12:55 PM 95.9 °F 101.3 °F 68.7 °F 41% 30.02 in 10.0 mi ESE 6.9 mph - N/A   Clear
1:15 PM 97.2 °F 101.9 °F 67.8 °F 38% 30.01 in 10.0 mi East 6.9 mph - N/A   Clear
1:35 PM 97.0 °F 101.6 °F 67.8 °F 38% 30.01 in 7.0 mi East 5.8 mph - N/A   Scattered Clouds
1:55 PM 98.6 °F 103.5 °F 67.1 °F 36% 30.00 in 10.0 mi ENE 8.1 mph 18.4 mph N/A   Scattered Clouds
2:35 PM 99.3 °F 103.5 °F 66.7 °F 34% 29.99 in 7.0 mi ENE 5.8 mph - N/A   Scattered Clouds
2:55 PM 96.3 °F 100.2 °F 66.7 °F 38% 29.99 in 7.0 mi ENE 5.8 mph - N/A   Scattered Clouds
3:15 PM 99.0 °F 104.8 °F 68.2 °F 37% 29.98 in 7.0 mi East 3.5 mph - N/A   Scattered Clouds
3:35 PM 99.5 °F 105.2 °F 68.5 °F 36% 29.98 in 10.0 mi ESE 5.8 mph - N/A   Scattered Clouds
3:55 PM 98.2 °F 102.8 °F 67.1 °F 36% 29.97 in 7.0 mi ENE 3.5 mph - N/A   Scattered Clouds
4:15 PM 98.8 °F 104.5 °F 68.5 °F 37% 29.96 in 7.0 mi East 5.8 mph - N/A   Scattered Clouds
4:35 PM 98.2 °F 104.7 °F 69.1 °F 39% 29.96 in 7.0 mi East 3.5 mph - N/A   Scattered Clouds
5:15 PM 97.0 °F 102.2 °F 68.5 °F 39% 29.96 in 7.0 mi East 6.9 mph - N/A   Scattered Clouds
5:35 PM 97.0 °F 101.6 °F 67.8 °F 38% 29.95 in 7.0 mi East 5.8 mph 16.1 mph N/A   Clear
5:55 PM 95.9 °F 101.3 °F 68.5 °F 41% 29.95 in 7.0 mi ESE 5.8 mph - N/A   Scattered Clouds
6:15 PM 95.4 °F 100.2 °F 68.4 °F 41% 29.95 in 10.0 mi ESE 5.8 mph - N/A   Scattered Clouds
6:35 PM 94.3 °F 98.7 °F 68.2 °F 42% 29.95 in 7.0 mi ESE 5.8 mph - N/A   Clear
6:55 PM 92.7 °F 96.2 °F 67.5 °F 43% 29.95 in 7.0 mi East 4.6 mph - N/A   Clear
7:15 PM 91.4 °F 95.4 °F 68.0 °F 46% 29.96 in 7.0 mi Calm Calm - N/A   Clear
7:35 PM 89.6 °F 93.4 °F 68.4 °F 49% 29.96 in 7.0 mi Calm Calm - N/A   Clear
7:55 PM 87.6 °F 91.5 °F 68.7 °F 53% 29.97 in 10.0 mi Calm Calm - N/A   Clear
8:15 PM 85.5 °F 89.1 °F 68.9 °F 57% 29.97 in 10.0 mi Calm Calm - N/A   Clear
8:35 PM 84.0 °F 87.8 °F 69.3 °F 61% 29.98 in 7.0 mi Calm Calm - N/A   Clear
8:55 PM 83.5 °F 87.2 °F 69.1 °F 62% 29.99 in 7.0 mi Calm Calm - N/A   Clear
9:15 PM 82.8 °F 86.2 °F 69.1 °F 63% 29.99 in 10.0 mi Calm Calm - N/A   Clear
9:35 PM 83.1 °F 87.3 °F 70.2 °F 65% 30.01 in 10.0 mi Calm Calm - N/A   Clear
9:55 PM 81.7 °F 85.8 °F 70.9 °F 70% 30.02 in 10.0 mi Calm Calm - N/A   Clear
10:15 PM 81.0 °F 85.1 °F 71.6 °F 73% 30.02 in 10.0 mi Calm Calm - N/A   Clear
10:35 PM 80.6 °F 84.7 °F 72.0 °F 75% 30.03 in 7.0 mi Calm Calm - N/A   Clear
10:55 PM 81.0 °F 85.2 °F 71.8 °F 74% 30.03 in 10.0 mi Calm Calm - N/A   Clear
11:15 PM 80.6 °F 84.6 °F 71.6 °F 74% 30.04 in 10.0 mi ESE 4.6 mph - N/A   Clear
11:35 PM 80.1 °F 83.7 °F 71.6 °F 75% 30.04 in 7.0 mi Calm Calm - N/A   Clear
11:55 PM 79.7 °F - 71.6 °F 76% 30.05 in 10.0 mi East 4.6 mph - N/A   Clear